TimeEST,TemperatureF,Dew PointF,Humidity,Sea Level PressureIn,VisibilityMPH,Wind Direction,Wind SpeedMPH,Gust SpeedMPH,PrecipitationIn,Events,Conditions,WindDirDegrees,DateUTC
12:59 AM,46.9,37.6,70,29.98,10.0,SSW,3.5,-,N/A,,Mostly Cloudy,210,2014-01-27 05:59:00
1:59 AM,47.7,37.6,68,29.95,10.0,ESE,3.5,-,N/A,,Mostly Cloudy,120,2014-01-27 06:59:00
2:58 AM,45.3,37.9,75,29.97,10.0,South,2.3,-,N/A,,Mostly Cloudy,180,2014-01-27 07:58:00
3:58 AM,45.0,39.0,80,29.96,10.0,SSW,2.3,-,N/A,,Overcast,200,2014-01-27 08:58:00
4:58 AM,44.8,39.9,83,29.96,10.0,SW,2.3,-,N/A,,Mostly Cloudy,220,2014-01-27 09:58:00
5:58 AM,45.9,40.3,81,29.95,10.0,West,2.3,-,N/A,,Overcast,260,2014-01-27 10:58:00
6:58 AM,47.8,42.1,80,29.96,10.0,West,6.9,-,N/A,,Overcast,260,2014-01-27 11:58:00
7:58 AM,45.3,42.4,90,29.96,10.0,South,1.2,-,N/A,,Partly Cloudy,190,2014-01-27 12:58:00
8:58 AM,51.1,45.0,80,29.98,10.0,Variable,5.8,-,N/A,,Clear,0,2014-01-27 13:58:00
9:58 AM,57.9,48.6,71,29.98,10.0,Variable,5.8,-,N/A,,Mostly Cloudy,0,2014-01-27 14:58:00
10:58 AM,63.0,49.6,62,29.98,10.0,SSW,6.9,-,N/A,,Clear,210,2014-01-27 15:58:00
11:58 AM,66.2,49.8,55,29.94,10.0,West,11.5,-,N/A,,Partly Cloudy,260,2014-01-27 16:58:00
12:58 PM,68.7,49.6,51,29.92,10.0,West,11.5,-,N/A,,Partly Cloudy,270,2014-01-27 17:58:00
1:58 PM,70.9,48.0,44,29.88,10.0,West,12.7,-,N/A,,Clear,270,2014-01-27 18:58:00
2:58 PM,71.8,47.5,42,29.87,10.0,SW,12.7,-,N/A,,Clear,220,2014-01-27 19:58:00
3:58 PM,72.7,46.8,40,29.86,10.0,WSW,8.1,17.3,N/A,,Partly Cloudy,250,2014-01-27 20:58:00
4:58 PM,69.4,47.7,46,29.88,10.0,WSW,8.1,-,N/A,,Partly Cloudy,250,2014-01-27 21:58:00
5:58 PM,64.6,48.4,56,29.90,10.0,West,3.5,-,N/A,,Scattered Clouds,260,2014-01-27 22:58:00
6:58 PM,59.2,48.2,67,29.92,10.0,SE,3.5,-,N/A,,Scattered Clouds,130,2014-01-27 23:58:00
7:22 PM,59.0,50.0,72,29.91,10.0,SE,3.5,-,N/A,Rain,Light Rain,130,2014-01-28 00:22:00
7:32 PM,59.0,51.8,77,29.92,10.0,SSE,2.3,-,N/A,,Mostly Cloudy,160,2014-01-28 00:32:00
7:58 PM,58.6,51.1,76,29.94,10.0,Calm,Calm,-,0.00,,Overcast,0,2014-01-28 00:58:00
8:58 PM,56.5,50.7,81,29.96,10.0,Calm,Calm,-,N/A,,Mostly Cloudy,0,2014-01-28 01:58:00
9:58 PM,56.7,51.3,82,29.98,10.0,West,2.3,-,N/A,,Overcast,280,2014-01-28 02:58:00
10:58 PM,59.2,52.3,78,29.99,10.0,NW,3.5,-,N/A,,Overcast,310,2014-01-28 03:58:00
11:58 PM,57.7,54.0,87,29.99,10.0,NNW,3.5,-,N/A,,Overcast,330,2014-01-28 04:58:00